Temperature
17 17 17 17 20 21 22 22 21 21 21 19 19 20 21 21 21 19 15 15 15 15 15 15 15 15 15 15 15 15 15 15 15 15 15 15 15 15 15 15 15 15 15 15 16 15 15 15 15
16 17 17 19 21 22 22 21 21 21 19 17 17 18 19 18 16 15 15 15 15 15 14 14 15 15 15 15 15 15 15 15 15 15 15 15 15 15 15 15 15 15 15 15 15 15 15 15 15
16 17 18 20 21 22 22 21 21 19 17 18 18 17 18 17 14 14 14 15 14 14 14 14 15 15 15 15 15 15 15 15 14 14 15 15 15 15 15 15 15 15 15 15 15 15 15 15 15
16 17 18 20 20 21 21 21 19 19 17 17 18 18 15 14 14 14 15 14 14 14 14 14 14 14 14 14 15 15 14 14 14 14 14 14 15 14 15 15 15 15 15 15 15 15 15 15 15
16 18 19 20 20 20 20 19 18 19 19 17 18 18 16 14 14 14 14 14 14 14 14 14 14 14 14 14 14 14 14 14 14 14 14 14 14 14 14 14 14 14 14 14 14 14 14 14 14
16 18 20 20 20 19 19 17 18 19 18 17 17 18 16 14 14 14 14 14 14 14 14 14 14 14 14 14 14 14 14 14 14 14 14 14 14 14 14 14 14 14 14 14 14 14 14 14 14
17 18 19 20 19 19 19 17 18 19 18 17 16 17 15 13 14 14 14 14 13 13 13 13 13 13 13 14 14 14 14 14 14 14 14 14 14 14 14 14 14 14 14 14 14 14 14 14 14
15 18 18 19 19 19 18 16 16 17 17 15 15 17 16 13 14 13 13 13 13 13 13 13 13 13 13 13 13 13 13 13 13 13 13 13 14 14 14 14 14 14 13 13 13 13 14 14 14
14 17 18 18 18 18 17 16 15 14 15 14 14 14 14 13 13 13 13 13 13 13 13 13 13 13 13 13 13 13 13 13 13 13 13 13 13 13 13 13 13 13 13 13 13 13 13 13 13
15 17 17 17 17 17 16 16 15 15 15 15 13 13 13 13 13 13 13 13 13 13 13 12 12 12 12 12 13 12 12 13 13 13 13 13 13 13 13 13 13 13 13 13 13 13 13 13 13
15 16 16 15 14 15 15 15 14 15 16 15 15 13 13 13 12 12 13 12 12 12 12 12 12 12 12 12 12 12 12 12 12 12 12 12 12 12 13 13 12 12 12 12 13 12 12 12 12
14 13 13 14 12 13 14 14 14 14 15 13 13 13 12 12 12 12 12 12 12 12 12 12 12 12 12 12 12 12 12 12 12 12 12 12 12 12 12 12 12 12 12 12 12 12 12 12 12
13 13 12 12 12 12 12 13 13 13 12 12 12 12 12 12 12 12 12 12 12 12 12 12 12 12 12 12 12 12 12 12 12 12 12 12 12 12 12 12 12 12 12 12 12 12 12 12 12
13 12 12 12 12 12 13 13 13 13 12 12 12 12 11 11 11 11 11 11 11 11 11 11 11 11 11 11 11 11 11 11 11 11 11 11 11 11 11 12 12 11 11 11 11 11 11 11 11
11 12 13 12 12 12 12 13 13 12 11 11 11 11 11 11 11 11 11 11 11 11 11 11 11 11 11 11 11 11 11 11 11 11 11 11 11 11 11 11 11 11 11 11 11 11 11 11 11
12 13 13 13 12 12 13 14 14 12 11 12 12 11 11 10 11 11 11 11 11 11 11 11 11 11 11 11 11 10 11 11 10 10 10 10 11 11 11 11 11 11 11 11 11 11 11 10 10
13 13 13 13 12 12 12 13 13 11 11 11 11 11 10 10 10 10 10 10 10 10 11 11 10 10 10 10 10 10 10 10 10 10 10 10 10 10 10 10 10 10 10 10 10 10 10 10 10
13 13 13 13 12 11 12 13 13 11 11 11 11 10 10 10 10 10 10 10 10 10 10 10 10 10 10 10 10 9 9 9 9 10 10 10 10 10 10 10 10 10 10 10 10 10 10 10 10
12 12 12 12 11 11 12 12 12 12 10 11 11 10 10 9 9 9 9 9 10 10 10 10 10 10 10 9 9 9 9 9 9 9 9 9 9 9 9 9 9 9 9 9 9 9 9 9 9
11 11 11 11 10 10 11 11 12 11 11 10 10 10 10 9 9 9 9 9 9 9 9 9 9 9 9 9 9 9 9 9 9 9 9 9 9 9 9 9 9 9 9 9 9 9 9 9 9
10 11 11 10 10 9 10 12 12 11 10 9 9 9 9 9 9 9 8 8 9 9 9 9 9 9 9 8 8 8 8 8 8 8 8 8 8 8 8 8 8 8 8 8 8 8 8 8 8
10 9 9 9 10 11 10 12 13 11 10 10 10 9 9 9 8 8 8 8 8 8 8 8 8 8 8 8 8 8 8 8 8 8 8 8 7 8 8 8 7 8 8 8 8 8 8 8 8
9 8 9 9 9 9 10 10 13 11 11 11 10 9 9 8 8 8 8 8 8 8 8 8 8 8 8 8 7 7 7 7 7 7 7 7 7 7 7 7 7 7 7 7 7 7 8 8 7
7 8 8 8 9 9 10 10 12 12 11 11 10 9 8 7 7 7 7 7 7 7 8 8 8 7 7 7 7 7 7 7 6 6 7 7 7 7 7 7 7 7 7 7 7 7 7 7 7
8 8 9 9 9 10 9 9 11 11 10 9 9 8 7 6 6 6 7 7 7 7 7 7 7 7 7 7 6 6 6 6 6 6 6 6 6 6 6 6 6 6 6 7 7 7 7 7 7
7 8 9 9 10 11 8 9 11 10 8 7 7 6 6 6 6 6 6 6 6 7 7 7 7 6 6 6 6 6 6 6 6 5 5 6 6 6 6 6 6 6 6 6 6 6 6 6 6
7 7 8 8 7 8 10 10 10 9 8 7 7 6 6 5 5 6 6 6 6 6 6 6 6 6 6 6 5 5 5 5 5 5 5 5 5 5 5 5 5 5 5 6 6 6 6 6 6
7 7 7 7 8 9 10 10 11 10 9 8 7 6 6 5 5 5 5 5 6 6 6 5 5 5 5 5 5 5 5 5 5 4 4 4 5 5 5 5 5 5 5 5 5 5 5 5 5
5 5 6 7 7 9 9 11 10 9 9 8 7 6 5 5 4 4 5 5 5 5 5 5 5 5 5 5 5 5 4 4 4 4 4 4 4 4 4 4 4 5 5 5 4 4 5 5 5
5 6 6 6 6 7 8 10 8 8 7 7 7 5 5 4 4 4 4 4 5 5 5 5 5 5 5 4 4 4 4 4 4 4 4 4 4 4 4 4 4 4 4 4 4 4 4 4 4
Wind_Speed
4 2 2 3 4 5 8 5 4 4 3 2 1 2 2 1 0 2 3 4 6 7 8 8 7 8 9 9 8 8 8 8 8 8 8 8 8 8 8 8 9 9 9 10 10 11 11 12 12
2 2 3 3 6 8 7 6 6 4 3 4 3 2 2 1 2 3 4 5 6 8 8 8 8 8 8 8 8 8 8 8 8 8 8 8 8 8 8 8 8 9 9 9 10 11 11 11 12
1 2 3 4 7 9 6 5 4 3 4 4 3 1 1 1 2 3 3 6 7 8 8 8 8 8 7 7 7 7 7 7 7 7 7 8 7 7 7 7 7 8 8 9 10 10 10 11 11
2 3 3 6 10 8 5 4 4 5 5 3 3 3 2 2 1 2 6 7 8 7 7 8 7 8 7 7 7 7 7 7 6 6 7 7 7 7 7 7 7 7 8 8 9 9 10 10 11
2 4 6 8 10 7 5 3 5 6 5 4 4 3 3 2 2 4 7 7 7 7 6 8 7 7 7 7 6 6 6 6 6 6 6 6 6 6 6 6 7 7 7 8 8 9 9 10 10
4 4 8 11 10 7 5 5 6 6 5 4 4 3 3 3 4 5 7 7 7 6 6 7 7 6 6 6 6 6 6 6 5 5 5 5 5 5 5 5 6 6 7 7 8 8 8 9 9
5 6 9 10 9 8 6 5 6 6 6 4 3 4 4 4 4 6 6 6 6 5 5 5 6 6 6 6 6 5 5 5 5 5 5 5 5 5 5 5 6 6 6 7 8 8 8 8 8
3 5 8 9 10 8 5 5 3 5 4 2 3 4 3 4 6 6 6 6 5 4 4 4 4 4 5 5 5 5 5 5 5 6 5 5 5 4 4 5 6 6 6 6 7 7 7 7 7
3 7 10 10 9 6 5 5 3 2 3 3 2 1 2 7 8 8 6 5 5 4 3 3 3 3 3 3 4 4 5 5 5 5 4 3 3 3 3 3 5 6 6 6 6 7 7 7 6
5 9 10 5 4 4 5 5 4 4 5 4 4 3 4 8 9 9 8 6 6 5 3 2 2 2 2 2 3 2 3 3 2 2 3 2 2 2 2 3 4 5 5 5 5 5 6 5 5
4 7 5 4 3 2 4 4 4 6 6 6 6 6 7 8 9 9 8 7 6 5 3 2 2 2 2 2 2 1 1 1 2 2 1 1 2 2 2 3 4 4 4 4 4 5 4 4 4
4 5 4 3 2 3 4 3 4 7 5 2 3 5 8 9 9 9 8 7 6 5 4 3 2 2 2 2 1 1 1 1 0 1 2 1 1 2 2 2 3 3 3 3 3 3 4 4 4
6 4 4 3 3 3 4 6 6 7 6 3 3 6 8 9 9 8 7 6 6 6 4 3 3 3 2 2 1 1 1 0 0 1 1 2 2 2 2 2 3 3 3 3 3 3 4 3 3
4 4 4 4 4 4 5 7 6 7 5 5 5 7 8 8 8 7 7 7 6 6 5 4 3 2 2 2 2 1 1 1 1 1 1 2 2 2 2 2 3 3 4 4 4 4 4 4 3
3 4 5 5 5 4 4 8 9 7 5 7 7 7 7 7 7 8 8 7 6 5 5 4 4 3 3 2 2 1 1 1 1 1 2 2 2 3 3 2 3 3 4 4 4 4 4 4 4
3 5 6 4 4 4 6 11 6 4 7 8 8 7 7 7 7 6 6 6 5 5 5 4 3 3 3 3 2 2 1 1 1 1 2 2 2 2 3 2 3 4 4 4 4 4 4 4 4
5 6 8 5 3 4 7 10 5 3 7 9 8 8 7 6 6 5 5 5 5 5 5 4 4 4 3 3 2 2 1 1 1 1 1 1 2 3 3 3 3 4 3 3 4 4 4 4 4
6 7 7 7 3 6 10 13 9 7 8 9 8 8 8 7 6 5 5 5 4 4 4 4 4 4 3 3 2 2 1 1 1 0 1 1 2 2 3 2 3 3 3 3 4 4 4 4 4
5 7 8 6 4 6 11 14 13 9 9 9 8 8 8 7 5 4 4 4 4 4 4 4 4 4 3 3 3 2 2 2 1 1 1 1 1 2 2 2 3 3 3 4 4 4 5 4 3
6 7 8 5 4 5 10 15 12 10 11 10 9 9 8 7 5 5 4 4 5 5 5 5 5 4 4 3 3 2 2 2 2 1 1 1 1 1 2 3 3 3 3 4 4 4 4 3 4
7 9 7 6 5 6 8 11 9 7 8 8 8 8 8 8 7 6 6 5 5 5 5 4 5 4 4 4 3 2 1 1 1 1 1 1 2 2 2 3 3 3 3 4 4 4 5 4 4
7 6 7 7 7 5 4 7 7 7 8 9 9 8 8 7 7 6 6 6 6 5 5 5 5 5 5 4 5 5 4 3 2 2 2 1 2 2 2 3 3 3 3 3 4 4 4 5 5
4 2 5 6 7 7 7 7 7 6 8 9 9 8 7 6 6 6 6 6 5 5 4 4 5 5 5 5 6 6 5 3 2 2 2 2 1 1 2 2 3 3 3 3 4 4 4 4 5
2 1 2 3 4 7 8 8 7 6 7 6 5 5 4 4 4 4 4 5 4 4 4 4 5 5 5 5 5 6 6 4 4 3 3 2 2 1 2 2 2 3 3 3 3 4 4 4 4
2 3 2 4 5 6 3 7 9 4 4 5 5 4 3 3 4 4 5 5 5 4 4 4 5 5 5 5 5 5 5 5 5 4 4 3 2 2 2 2 2 2 3 3 3 3 4 4 5
5 4 4 4 5 4 4 8 5 2 3 3 3 2 2 2 3 4 4 5 5 5 4 4 5 5 5 5 5 5 5 4 3 4 3 3 3 3 3 2 2 3 3 3 3 3 4 4 4
4 5 3 3 3 5 5 6 6 3 2 2 2 1 2 2 3 3 3 4 4 4 4 5 5 5 5 5 5 4 5 4 4 3 3 3 3 2 3 3 3 3 3 3 3 2 3 3 4
2 2 3 4 4 6 5 6 4 2 2 2 3 3 2 2 1 2 3 3 3 3 4 3 4 4 5 5 4 4 4 4 4 4 4 3 3 3 3 3 3 3 3 3 3 3 3 3 3
3 3 3 4 4 5 5 4 1 3 3 3 4 4 3 3 2 2 3 3 3 2 3 3 3 3 4 4 4 4 4 4 4 4 4 3 3 3 3 3 4 3 3 3 3 3 3 3 3
4 5 5 4 4 5 6 5 1 3 4 5 5 4 3 3 3 3 3 2 2 3 2 3 3 3 3 4 4 4 4 4 4 4 4 3 3 3 3 3 3 3 3 3 3 3 4 4 5
Wind_Direction
321 290 234 222 214 220 227 209 203 184 183 161 148 189 197 184 300 76 88 136 135 141 139 139 130 122 119 117 113 110 107 105 103 101 99 100 102 100 97 96 97 98 101 99 98 97 95 92 90
304 246 217 222 228 224 218 202 197 188 150 143 151 174 170 132 57 88 127 137 142 139 138 135 126 124 120 117 115 114 109 106 107 104 100 99 100 101 101 99 101 100 102 101 102 100 97 95 93
234 249 223 213 226 230 209 178 181 164 157 177 163 167 197 115 111 118 126 145 146 140 137 126 122 122 122 121 118 115 112 109 108 106 101 98 98 99 102 104 104 104 105 104 104 104 102 98 96
216 193 217 228 224 227 222 177 167 161 161 183 180 151 134 67 77 108 132 148 146 140 136 126 125 121 118 120 121 118 115 112 112 109 105 99 98 98 97 104 106 108 109 111 109 106 104 102 98
220 209 212 225 229 223 223 216 193 190 177 174 187 168 145 99 90 120 139 145 143 138 132 127 122 121 119 115 114 117 118 116 113 109 105 102 100 103 104 105 107 111 112 116 116 111 107 104 101
194 211 223 226 223 221 217 208 200 203 183 170 182 174 138 111 125 134 141 144 143 138 134 130 124 121 122 121 116 114 116 116 116 111 106 105 104 103 110 108 109 112 111 112 117 112 110 108 104
215 214 229 229 224 222 211 194 205 200 191 183 186 174 149 142 135 140 140 137 137 135 134 133 138 132 129 125 119 112 110 115 111 104 101 100 102 105 110 111 108 112 115 113 117 115 114 114 109
234 216 223 223 224 223 192 189 208 211 199 155 193 193 165 156 144 141 138 136 137 136 136 135 136 137 139 135 120 114 112 111 109 101 95 97 105 113 112 127 115 114 120 119 121 124 122 121 117
227 226 227 221 220 215 182 191 184 199 178 178 202 238 103 135 144 145 146 147 148 148 147 141 137 133 133 133 121 119 115 109 117 114 103 118 144 146 139 127 119 119 123 125 127 133 130 128 122
211 228 231 227 229 212 189 202 191 187 195 206 201 188 146 151 161 166 171 172 170 170 164 154 150 139 131 126 129 136 139 137 142 145 147 161 161 165 145 122 132 131 128 132 133 140 148 158 152
210 229 230 229 237 225 206 218 211 212 222 225 219 197 176 178 182 184 183 183 181 177 167 168 163 155 155 143 140 133 144 153 165 161 169 191 173 170 175 175 166 162 158 159 152 165 166 168 160
210 233 240 237 239 234 228 218 222 233 242 253 233 197 182 191 196 198 191 188 183 179 179 180 174 172 176 168 150 152 151 169 168 196 199 205 202 198 193 198 191 189 183 176 177 179 169 169 169
221 231 237 248 246 246 243 240 245 242 248 248 219 196 194 200 207 209 203 192 189 190 188 187 180 184 181 169 159 158 175 191 207 239 229 224 221 220 206 205 199 196 188 181 180 184 178 176 174
213 225 245 257 249 245 244 256 243 246 238 224 211 209 205 208 212 210 205 203 202 200 197 190 184 188 187 185 189 191 181 188 217 233 252 238 235 232 222 214 207 199 194 189 190 191 180 179 171
199 228 246 246 243 242 249 252 235 243 227 225 221 219 214 216 213 216 214 212 212 207 199 194 191 188 192 192 198 194 187 190 213 244 240 232 229 234 230 218 217 205 197 192 188 190 188 183 180
202 222 238 230 229 229 238 253 241 237 226 230 228 226 224 225 223 221 218 214 213 207 199 197 194 191 198 196 197 191 182 187 205 240 247 235 230 230 233 229 221 212 200 195 193 196 194 190 192
212 235 245 246 222 229 234 258 258 242 240 240 235 233 232 231 231 224 214 213 211 208 202 198 194 191 197 194 188 182 162 166 198 224 256 252 238 228 227 234 226 216 205 201 200 204 199 191 194
225 236 246 248 241 243 247 258 264 255 254 249 242 237 235 234 233 225 212 211 209 206 205 204 194 193 191 187 187 185 169 176 189 214 245 261 251 234 226 223 224 219 211 205 203 201 201 198 193
243 241 255 269 281 262 256 264 266 258 248 243 239 238 236 236 232 215 210 206 202 199 201 203 198 195 192 195 197 198 208 212 208 222 240 239 248 243 234 227 219 221 216 209 205 199 193 193 188
234 246 260 273 282 271 274 273 268 252 237 236 237 238 238 232 224 212 206 203 203 199 200 201 200 199 199 200 202 207 209 215 221 215 227 242 249 238 234 231 224 223 221 210 206 196 195 194 194
244 245 253 266 292 262 282 272 243 235 234 235 238 238 235 230 224 216 211 208 206 202 204 204 201 199 199 195 183 171 184 213 218 228 233 245 251 243 229 231 226 224 226 220 211 206 209 202 199
250 251 251 257 272 270 268 276 249 227 231 233 236 235 232 229 226 218 216 213 212 210 205 205 203 201 198 194 190 188 198 212 227 226 234 242 246 246 234 224 221 222 229 230 218 213 219 210 203
251 265 248 255 257 268 245 253 262 222 237 234 231 230 230 229 225 220 219 217 211 205 198 197 198 201 199 200 202 203 206 212 212 210 215 220 238 242 232 224 218 219 223 229 222 213 212 213 209
197 204 235 233 239 251 239 241 265 231 239 241 235 238 236 228 222 222 218 208 200 192 188 188 191 198 199 203 208 211 209 207 203 207 211 222 226 233 228 219 213 211 213 221 221 211 212 216 213
212 213 226 224 224 243 221 240 256 267 261 265 263 253 240 230 219 213 209 203 198 193 190 189 191 198 201 201 209 214 213 210 211 211 212 212 218 236 229 219 213 210 209 210 213 210 213 217 213
212 226 235 245 246 261 222 238 256 313 302 278 257 241 243 231 228 222 212 206 198 193 193 195 198 203 203 202 208 209 205 207 211 211 211 212 216 223 224 219 215 209 205 208 212 217 219 211 212
198 219 255 264 276 268 243 260 281 271 267 255 237 230 241 241 243 233 213 204 196 193 198 200 202 207 206 204 206 204 202 202 205 209 213 214 211 210 209 211 214 215 208 208 211 218 224 213 213
277 203 197 218 236 250 254 256 265 279 260 243 243 238 239 249 251 236 214 202 202 200 199 198 201 210 211 207 205 206 207 207 207 208 210 215 213 205 205 207 212 214 210 212 213 217 221 216 216
191 198 223 230 254 252 257 257 266 264 286 272 260 253 245 241 245 238 221 208 203 200 197 197 199 204 206 205 204 204 205 205 207 211 211 212 214 211 209 208 209 210 211 211 213 214 216 217 218
240 227 210 229 236 242 260 270 360 287 290 284 279 268 255 246 238 229 220 209 202 203 203 204 205 205 207 204 202 206 204 201 206 214 212 208 210 210 213 213 211 211 212 213 216 219 217 220 220
Height
1510 1510 1512 1513 1512 1508 1504 1503 1504 1507 1508 1511 1512 1512 1510 1511 1513 1519 1519 1517 1518 1520 1522 1523 1525 1526 1527 1528 1528 1529 1530 1530 1531 1531 1532 1532 1532 1532 1532 1533 1533 1533 1533 1534 1534 1534 1534 1535 1535
1510 1511 1513 1513 1507 1505 1503 1502 1504 1506 1510 1512 1513 1513 1513 1514 1516 1517 1516 1517 1519 1520 1522 1523 1525 1526 1527 1528 1529 1529 1530 1531 1531 1532 1532 1532 1533 1533 1533 1533 1533 1534 1534 1534 1535 1535 1535 1536 1536
1509 1511 1513 1508 1504 1499 1499 1502 1504 1508 1511 1512 1512 1513 1514 1515 1516 1516 1516 1517 1519 1521 1522 1523 1525 1526 1527 1528 1529 1529 1530 1531 1531 1532 1532 1533 1533 1533 1533 1534 1534 1534 1535 1535 1535 1535 1536 1536 1536
1510 1512 1512 1506 1501 1499 1499 1502 1506 1508 1511 1512 1512 1513 1514 1515 1515 1516 1516 1517 1519 1521 1523 1523 1525 1526 1527 1528 1529 1529 1530 1531 1531 1532 1533 1533 1533 1533 1534 1534 1534 1535 1535 1535 1536 1536 1536 1537 1537
1510 1510 1507 1504 1500 1500 1503 1505 1507 1507 1508 1510 1511 1511 1514 1515 1514 1515 1516 1517 1520 1521 1522 1523 1524 1526 1527 1528 1528 1529 1530 1530 1531 1532 1532 1533 1533 1533 1534 1534 1534 1535 1535 1535 1536 1536 1537 1537 1537
1510 1507 1503 1499 1498 1501 1503 1506 1507 1506 1508 1510 1511 1511 1514 1514 1514 1515 1516 1518 1520 1521 1522 1523 1524 1525 1526 1527 1528 1529 1529 1530 1531 1531 1532 1532 1533 1533 1534 1534 1534 1535 1535 1536 1536 1536 1537 1537 1538
1508 1504 1499 1496 1498 1500 1503 1506 1506 1505 1507 1509 1511 1511 1513 1514 1514 1515 1516 1518 1519 1521 1522 1523 1524 1524 1525 1526 1527 1528 1529 1529 1530 1531 1531 1532 1532 1533 1533 1534 1534 1534 1535 1535 1536 1536 1537 1537 1538
1506 1504 1500 1498 1497 1498 1503 1505 1506 1507 1507 1509 1510 1510 1512 1513 1513 1515 1516 1517 1519 1520 1521 1522 1523 1524 1524 1525 1526 1527 1528 1528 1529 1530 1530 1531 1532 1532 1533 1533 1534 1534 1534 1535 1535 1536 1537 1537 1538
1506 1504 1497 1496 1497 1498 1503 1505 1507 1507 1507 1508 1509 1510 1511 1511 1512 1514 1515 1516 1518 1519 1520 1521 1522 1522 1523 1524 1525 1526 1527 1527 1528 1529 1529 1530 1530 1531 1532 1532 1533 1533 1533 1534 1535 1535 1536 1536 1537
1505 1500 1495 1498 1499 1500 1503 1504 1506 1506 1506 1507 1508 1509 1509 1510 1511 1512 1514 1515 1516 1517 1518 1519 1520 1521 1522 1523 1524 1524 1525 1526 1526 1527 1527 1528 1529 1529 1530 1531 1531 1532 1532 1533 1534 1534 1535 1536 1536
1503 1499 1499 1501 1502 1503 1503 1504 1505 1504 1503 1505 1506 1507 1508 1509 1510 1511 1512 1513 1515 1516 1517 1518 1519 1520 1521 1522 1522 1523 1524 1524 1525 1525 1526 1526 1527 1528 1528 1529 1530 1530 1531 1532 1532 1533 1534 1535 1535
1503 1502 1502 1502 1503 1503 1503 1503 1504 1504 1503 1504 1505 1506 1506 1507 1509 1510 1510 1512 1513 1514 1515 1516 1517 1518 1519 1520 1521 1521 1522 1522 1523 1523 1524 1524 1525 1526 1526 1527 1528 1528 1529 1530 1531 1532 1532 1533 1534
1502 1502 1503 1503 1503 1503 1503 1503 1502 1502 1503 1502 1503 1504 1505 1506 1507 1508 1509 1510 1511 1512 1513 1514 1515 1516 1517 1518 1518 1519 1520 1520 1521 1521 1521 1522 1523 1523 1524 1525 1525 1526 1527 1528 1529 1530 1531 1532 1533
1501 1502 1503 1503 1502 1503 1502 1501 1501 1499 1501 1501 1501 1502 1503 1503 1505 1506 1506 1507 1509 1510 1511 1512 1513 1514 1515 1515 1516 1517 1518 1518 1519 1519 1519 1520 1520 1521 1521 1522 1523 1524 1525 1526 1527 1528 1529 1530 1531
1502 1502 1501 1501 1501 1501 1501 1497 1497 1497 1499 1499 1499 1500 1500 1501 1502 1503 1504 1505 1506 1507 1508 1509 1510 1511 1512 1513 1514 1514 1515 1516 1516 1516 1517 1517 1518 1518 1519 1519 1520 1521 1522 1523 1524 1525 1526 1528 1528
1500 1498 1496 1497 1500 1500 1502 1491 1492 1495 1496 1496 1497 1498 1498 1498 1499 1500 1501 1502 1503 1504 1505 1506 1508 1509 1509 1510 1511 1512 1512 1513 1513 1514 1514 1515 1515 1515 1516 1516 1517 1518 1519 1520 1522 1523 1524 1525 1526
1496 1493 1492 1495 1498 1498 1497 1490 1491 1494 1494 1494 1494 1495 1495 1496 1496 1497 1498 1499 1500 1501 1502 1503 1504 1505 1506 1507 1508 1509 1509 1510 1510 1511 1511 1512 1512 1513 1513 1514 1514 1515 1516 1518 1519 1520 1521 1522 1523
1491 1491 1492 1492 1495 1496 1494 1489 1489 1492 1492 1491 1491 1492 1492 1493 1493 1494 1494 1495 1496 1498 1499 1500 1501 1502 1503 1504 1505 1505 1506 1507 1507 1507 1508 1509 1509 1510 1510 1511 1512 1513 1514 1515 1516 1518 1519 1520 1521
1492 1492 1491 1493 1496 1495 1490 1487 1486 1488 1489 1488 1488 1489 1489 1490 1490 1491 1491 1492 1493 1494 1495 1496 1497 1498 1499 1500 1501 1502 1502 1503 1504 1504 1505 1506 1506 1506 1507 1508 1509 1510 1511 1512 1513 1515 1516 1517 1518
1494 1493 1492 1494 1497 1495 1489 1485 1482 1483 1483 1484 1484 1485 1485 1486 1487 1487 1488 1489 1490 1491 1492 1493 1493 1494 1495 1496 1497 1498 1499 1500 1501 1501 1502 1502 1503 1503 1504 1505 1506 1507 1508 1509 1510 1511 1512 1513 1515
1494 1492 1492 1494 1495 1494 1491 1477 1476 1478 1480 1480 1481 1481 1481 1482 1482 1483 1484 1485 1487 1488 1489 1489 1490 1491 1492 1493 1494 1495 1496 1497 1498 1498 1499 1499 1500 1501 1501 1502 1503 1504 1505 1506 1507 1508 1509 1510 1511
1492 1495 1495 1495 1494 1487 1490 1476 1468 1472 1475 1476 1476 1477 1478 1478 1479 1480 1481 1482 1483 1484 1485 1486 1487 1488 1489 1490 1491 1492 1492 1493 1494 1495 1496 1496 1497 1498 1498 1499 1500 1501 1502 1503 1504 1505 1506 1507 1508
1494 1497 1496 1495 1494 1490 1486 1484 1464 1470 1469 1469 1471 1473 1474 1475 1476 1477 1478 1479 1480 1481 1482 1483 1484 1485 1486 1486 1487 1488 1489 1490 1491 1492 1492 1493 1493 1494 1495 1496 1497 1498 1498 1499 1501 1502 1503 1503 1504
1497 1497 1496 1495 1492 1489 1481 1480 1462 1462 1463 1465 1468 1470 1471 1472 1473 1474 1475 1476 1477 1478 1479 1480 1481 1482 1483 1484 1484 1485 1486 1487 1488 1489 1489 1489 1490 1491 1492 1492 1493 1494 1495 1496 1497 1499 1499 1500 1501
1496 1493 1491 1489 1486 1477 1482 1480 1464 1461 1465 1466 1468 1469 1470 1470 1471 1471 1472 1473 1474 1475 1476 1477 1478 1479 1480 1481 1481 1482 1483 1484 1485 1485 1486 1486 1487 1487 1488 1489 1490 1491 1491 1493 1494 1495 1496 1496 1497
1493 1491 1487 1483 1476 1471 1482 1474 1460 1464 1467 1467 1468 1468 1468 1468 1469 1469 1470 1470 1471 1472 1473 1474 1475 1476 1477 1477 1478 1479 1480 1481 1481 1482 1483 1483 1484 1485 1485 1486 1487 1487 1488 1489 1490 1491 1492 1493 1494
1492 1490 1490 1488 1488 1482 1469 1467 1462 1463 1464 1465 1466 1467 1467 1467 1467 1467 1468 1468 1469 1470 1471 1472 1472 1473 1474 1474 1475 1476 1477 1478 1478 1479 1480 1480 1481 1482 1482 1483 1484 1485 1485 1486 1487 1488 1488 1489 1490
1494 1491 1491 1488 1482 1472 1464 1464 1458 1457 1459 1462 1464 1465 1466 1465 1466 1466 1466 1466 1467 1468 1469 1469 1470 1470 1471 1471 1472 1473 1474 1475 1476 1476 1477 1478 1478 1479 1479 1480 1481 1482 1482 1483 1484 1484 1485 1485 1486
1494 1494 1490 1486 1482 1473 1465 1458 1458 1459 1460 1461 1462 1463 1464 1464 1464 1464 1464 1465 1465 1465 1466 1467 1467 1468 1468 1468 1469 1470 1471 1472 1473 1474 1474 1475 1475 1476 1476 1477 1478 1478 1479 1480 1480 1480 1481 1482 1482
1491 1488 1488 1485 1483 1480 1469 1462 1460 1462 1462 1462 1462 1462 1462 1463 1463 1463 1463 1463 1463 1463 1463 1464 1464 1465 1465 1466 1466 1467 1468 1469 1470 1470 1471 1471 1472 1473 1473 1474 1474 1475 1475 1476 1477 1477 1478 1478 1479